NPT3A EGNX-EGPH

Flight info

Callsign NPT3A
Flight time 0h 42m
Altitude 24000
Route TNT N57 POL N601 TLA
Aircraft R722/M-SDFWY/S

Departure

Time 2026-05-07 15:33
Airport East Midlands Airport (EGNX)

Arrival

Time 2026-05-07 16:16
Airport Edinburgh Airport (EGPH)
Time Latitude Longitude Altitude Speed Heading
2026-05-07 14:54 52.82814 -1.31978 304 ft 0 kts 178°
2026-05-07 15:21 52.82831 -1.31979 305 ft 3 kts 178°
2026-05-07 15:22 52.82852 -1.31980 304 ft 3 kts 180°
2026-05-07 15:22 52.82872 -1.31972 304 ft 3 kts 217°
2026-05-07 15:22 52.82880 -1.31945 305 ft 3 kts 264°
2026-05-07 15:22 52.82881 -1.31913 304 ft 1 kts 268°
2026-05-07 15:23 52.82881 -1.31906 304 ft 0 kts 268°
2026-05-07 15:27 52.82881 -1.31918 304 ft 3 kts 268°
2026-05-07 15:27 52.82879 -1.31993 304 ft 9 kts 268°
2026-05-07 15:27 52.82878 -1.32111 304 ft 11 kts 279°
2026-05-07 15:27 52.82930 -1.32187 306 ft 10 kts 309°
2026-05-07 15:28 52.82940 -1.32311 304 ft 12 kts 267°
2026-05-07 15:28 52.82936 -1.32453 304 ft 13 kts 268°
2026-05-07 15:28 52.82934 -1.32620 304 ft 15 kts 269°
2026-05-07 15:28 52.82931 -1.32802 308 ft 16 kts 268°
2026-05-07 15:29 52.82928 -1.32993 305 ft 18 kts 268°
2026-05-07 15:29 52.82924 -1.33204 307 ft 19 kts 268°
2026-05-07 15:29 52.82920 -1.33415 311 ft 18 kts 268°
2026-05-07 15:29 52.82916 -1.33624 308 ft 13 kts 268°
2026-05-07 15:30 52.82924 -1.33713 310 ft 4 kts 316°
2026-05-07 15:30 52.82946 -1.33725 309 ft 3 kts 356°
2026-05-07 15:30 52.82956 -1.33726 309 ft 1 kts 356°
2026-05-07 15:30 52.82961 -1.33726 309 ft 0 kts 356°
2026-05-07 15:32 52.82962 -1.33726 310 ft 1 kts 356°
2026-05-07 15:32 52.83006 -1.33730 312 ft 11 kts 358°
2026-05-07 15:32 52.83075 -1.33727 313 ft 5 kts 35°
2026-05-07 15:32 52.83085 -1.33640 312 ft 24 kts 88°
2026-05-07 15:33 52.83099 -1.32877 304 ft 108 kts 89°
2026-05-07 15:33 52.83122 -1.31313 473 ft 153 kts 90°
2026-05-07 15:33 52.83092 -1.29459 1099 ft 168 kts 98°
2026-05-07 15:33 52.82992 -1.27549 1889 ft 169 kts 96°
2026-05-07 15:34 52.82969 -1.25563 2179 ft 178 kts 83°
2026-05-07 15:34 52.83584 -1.23774 2601 ft 192 kts 36°
2026-05-07 15:34 52.84902 -1.23460 2986 ft 203 kts 339°
2026-05-07 15:34 52.86009 -1.24939 3428 ft 213 kts 311°
2026-05-07 15:35 52.87091 -1.26772 3945 ft 235 kts 315°
2026-05-07 15:35 52.88343 -1.28762 4365 ft 263 kts 313°
2026-05-07 15:35 52.89622 -1.31142 4797 ft 287 kts 309°
2026-05-07 15:35 52.90914 -1.33669 5606 ft 287 kts 309°
2026-05-07 15:36 52.92074 -1.36026 6449 ft 248 kts 307°
2026-05-07 15:36 52.93157 -1.38371 7244 ft 262 kts 305°
2026-05-07 15:36 52.94239 -1.40793 8070 ft 262 kts 304°
2026-05-07 15:36 52.95332 -1.43245 8927 ft 266 kts 304°
2026-05-07 15:37 52.96456 -1.45707 9813 ft 270 kts 304°
2026-05-07 15:37 52.97596 -1.48204 10624 ft 273 kts 304°
2026-05-07 15:37 52.98748 -1.50733 11446 ft 276 kts 304°
2026-05-07 15:37 52.99920 -1.53314 12030 ft 293 kts 304°
2026-05-07 15:38 53.01185 -1.56115 12464 ft 314 kts 304°
2026-05-07 15:38 53.02537 -1.59131 12822 ft 335 kts 304°
2026-05-07 15:38 53.04167 -1.62051 13177 ft 352 kts 316°
2026-05-07 15:38 53.06105 -1.64562 13605 ft 355 kts 322°
2026-05-07 15:39 53.08163 -1.66881 14054 ft 358 kts 325°
2026-05-07 15:39 53.10262 -1.69050 14468 ft 360 kts 327°
2026-05-07 15:39 53.12434 -1.71131 14992 ft 360 kts 329°
2026-05-07 15:39 53.14657 -1.73093 15613 ft 363 kts 332°
2026-05-07 15:40 53.16944 -1.74943 16250 ft 366 kts 333°
2026-05-07 15:40 53.19275 -1.76714 16904 ft 369 kts 335°
2026-05-07 15:40 53.21656 -1.78355 17574 ft 372 kts 336°
2026-05-07 15:40 53.24085 -1.79893 18265 ft 375 kts 338°
2026-05-07 15:41 53.26527 -1.81367 18858 ft 379 kts 338°
2026-05-07 15:41 53.29024 -1.82846 19461 ft 382 kts 339°
2026-05-07 15:41 53.31551 -1.84340 20084 ft 386 kts 339°
2026-05-07 15:41 53.34094 -1.85853 20711 ft 390 kts 339°
2026-05-07 15:42 53.36663 -1.87392 21356 ft 393 kts 338°
2026-05-07 15:42 53.39224 -1.88932 22055 ft 396 kts 338°
2026-05-07 15:42 53.41835 -1.90508 22813 ft 400 kts 339°
2026-05-07 15:42 53.44466 -1.92102 23593 ft 404 kts 339°
2026-05-07 15:43 53.47134 -1.93722 24030 ft 416 kts 339°
2026-05-07 15:43 53.49865 -1.95379 24037 ft 416 kts 339°
2026-05-07 15:43 53.52595 -1.97034 24039 ft 415 kts 339°
2026-05-07 15:43 53.55319 -1.98688 24035 ft 414 kts 339°
2026-05-07 15:44 53.58005 -2.00320 24030 ft 415 kts 339°
2026-05-07 15:44 53.60729 -2.01978 24031 ft 416 kts 339°
2026-05-07 15:44 53.63452 -2.03640 24030 ft 415 kts 339°
2026-05-07 15:44 53.66179 -2.05269 24029 ft 420 kts 340°
2026-05-07 15:45 53.69026 -2.06925 24042 ft 443 kts 340°
2026-05-07 15:45 53.71961 -2.08638 24056 ft 465 kts 340°
2026-05-07 15:45 53.75113 -2.10459 24038 ft 469 kts 340°
2026-05-07 15:45 53.78152 -2.12277 24040 ft 469 kts 339°
2026-05-07 15:46 53.84231 -2.16291 24035 ft 468 kts 336°
2026-05-07 15:46 53.87257 -2.18412 24034 ft 469 kts 336°
2026-05-07 15:46 53.90266 -2.20540 24034 ft 469 kts 336°
2026-05-07 15:47 53.93270 -2.22655 24037 ft 468 kts 336°
2026-05-07 15:47 53.96291 -2.24765 24037 ft 468 kts 336°
2026-05-07 15:47 53.99318 -2.26868 24035 ft 470 kts 336°
2026-05-07 15:47 54.02304 -2.28938 24035 ft 470 kts 336°
2026-05-07 15:48 54.05336 -2.31041 24030 ft 470 kts 336°
2026-05-07 15:48 54.08367 -2.33147 24028 ft 469 kts 336°
2026-05-07 15:48 54.11399 -2.35259 24028 ft 469 kts 336°
2026-05-07 15:48 54.14423 -2.37371 24029 ft 469 kts 336°
2026-05-07 15:49 54.17446 -2.39486 24026 ft 469 kts 336°
2026-05-07 15:49 54.20434 -2.41582 24029 ft 470 kts 336°
2026-05-07 15:49 54.23465 -2.43708 24027 ft 472 kts 336°
2026-05-07 15:49 54.26504 -2.45843 24029 ft 472 kts 336°
2026-05-07 15:50 54.29551 -2.47988 24028 ft 472 kts 336°
2026-05-07 15:50 54.32593 -2.50130 24022 ft 471 kts 336°
2026-05-07 15:50 54.35635 -2.52276 24019 ft 472 kts 336°
2026-05-07 15:50 54.38645 -2.54396 24021 ft 472 kts 336°
2026-05-07 15:51 54.41682 -2.56548 24022 ft 472 kts 336°
2026-05-07 15:51 54.44715 -2.58702 24018 ft 472 kts 336°
2026-05-07 15:51 54.47760 -2.60866 24019 ft 476 kts 336°
2026-05-07 15:51 54.50850 -2.63064 24019 ft 479 kts 336°
2026-05-07 15:52 54.53941 -2.65265 24013 ft 479 kts 336°
2026-05-07 15:52 54.57016 -2.67457 24013 ft 479 kts 336°
2026-05-07 15:52 54.60104 -2.69659 24011 ft 478 kts 335°
2026-05-07 15:52 54.63144 -2.71831 24008 ft 478 kts 335°
2026-05-07 15:53 54.66217 -2.74031 24008 ft 478 kts 335°
2026-05-07 15:53 54.69306 -2.76246 24008 ft 478 kts 335°
2026-05-07 15:53 54.72386 -2.78460 24011 ft 478 kts 335°
2026-05-07 15:53 54.75350 -2.80586 24003 ft 441 kts 335°
2026-05-07 15:54 54.78058 -2.82524 23977 ft 418 kts 335°
2026-05-07 15:54 54.80728 -2.84448 23884 ft 412 kts 335°
2026-05-07 15:54 54.83380 -2.86370 23520 ft 411 kts 335°
2026-05-07 15:54 54.86003 -2.88274 23048 ft 402 kts 335°
2026-05-07 15:55 54.88574 -2.90138 22540 ft 398 kts 334°
2026-05-07 15:55 54.91127 -2.91992 22045 ft 395 kts 334°
2026-05-07 15:55 54.93655 -2.93829 21571 ft 392 kts 334°
2026-05-07 15:55 54.96163 -2.95652 21125 ft 389 kts 334°
2026-05-07 15:56 54.98656 -2.97467 20736 ft 386 kts 334°
2026-05-07 15:56 55.01095 -2.99246 20359 ft 384 kts 334°
2026-05-07 15:56 55.03555 -3.01041 19980 ft 382 kts 334°
2026-05-07 15:56 55.06006 -3.02831 19608 ft 380 kts 334°
2026-05-07 15:57 55.08442 -3.04613 19239 ft 378 kts 334°
2026-05-07 15:57 55.10866 -3.06389 18877 ft 376 kts 334°
2026-05-07 15:57 55.13270 -3.08152 18518 ft 374 kts 334°
2026-05-07 15:57 55.15669 -3.09910 18153 ft 372 kts 334°
2026-05-07 15:58 55.18021 -3.11640 17710 ft 370 kts 334°
2026-05-07 15:58 55.20384 -3.13378 17214 ft 366 kts 334°
2026-05-07 15:58 55.22729 -3.15102 16713 ft 363 kts 334°
2026-05-07 15:58 55.25045 -3.16810 16210 ft 360 kts 334°
2026-05-07 15:59 55.27340 -3.18505 15729 ft 356 kts 334°
2026-05-07 15:59 55.29622 -3.20174 15242 ft 353 kts 334°
2026-05-07 15:59 55.31894 -3.21815 14770 ft 351 kts 334°
2026-05-07 15:59 55.34147 -3.23441 14295 ft 348 kts 334°
2026-05-07 16:00 55.36354 -3.25028 13840 ft 345 kts 334°
2026-05-07 16:00 55.38569 -3.26603 13341 ft 342 kts 334°
2026-05-07 16:00 55.40772 -3.28166 12834 ft 340 kts 334°
2026-05-07 16:00 55.42963 -3.29721 12318 ft 337 kts 334°
2026-05-07 16:01 55.45130 -3.31254 11833 ft 335 kts 334°
2026-05-07 16:01 55.47286 -3.32774 11427 ft 331 kts 334°
2026-05-07 16:01 55.49359 -3.34226 11028 ft 309 kts 334°
2026-05-07 16:01 55.51352 -3.35309 10582 ft 296 kts 353°
2026-05-07 16:02 55.53347 -3.34762 10166 ft 286 kts 16°
2026-05-07 16:02 55.55201 -3.33670 9760 ft 278 kts 16°
2026-05-07 16:02 55.57024 -3.32602 9318 ft 275 kts 15°
2026-05-07 16:02 55.58815 -3.31432 8900 ft 273 kts 25°
2026-05-07 16:03 55.60458 -3.29726 8478 ft 273 kts 35°
2026-05-07 16:03 55.61942 -3.27631 8106 ft 272 kts 39°
2026-05-07 16:03 55.63411 -3.25532 7746 ft 270 kts 37°
2026-05-07 16:03 55.64912 -3.23601 7389 ft 269 kts 32°
2026-05-07 16:04 55.66495 -3.21858 7111 ft 266 kts 30°
2026-05-07 16:04 55.68069 -3.20185 6932 ft 257 kts 30°
2026-05-07 16:04 55.69571 -3.18661 6749 ft 244 kts 28°
2026-05-07 16:04 55.71059 -3.17204 6557 ft 242 kts 27°
2026-05-07 16:05 55.72533 -3.15772 6379 ft 240 kts 27°
2026-05-07 16:05 55.74008 -3.14359 6184 ft 240 kts 27°
2026-05-07 16:05 55.75467 -3.12976 6013 ft 238 kts 27°
2026-05-07 16:05 55.76920 -3.11607 5825 ft 235 kts 27°
2026-05-07 16:06 55.78363 -3.10231 5641 ft 235 kts 27°
2026-05-07 16:06 55.79797 -3.08865 5457 ft 233 kts 27°
2026-05-07 16:06 55.81234 -3.07495 5276 ft 234 kts 28°
2026-05-07 16:06 55.82171 -3.06609 5159 ft 222 kts 27°
2026-05-07 16:07 55.83962 -3.04929 4918 ft 218 kts 28°
2026-05-07 16:07 55.85306 -3.03676 4732 ft 219 kts 27°
2026-05-07 16:07 55.86206 -3.02851 4608 ft 218 kts 25°
2026-05-07 16:07 55.87621 -3.01937 4419 ft 215 kts 14°
2026-05-07 16:08 55.89076 -3.01263 4180 ft 217 kts 13°
2026-05-07 16:08 55.90541 -3.00584 3829 ft 217 kts 13°
2026-05-07 16:08 55.91997 -2.99901 3613 ft 216 kts 13°
2026-05-07 16:08 55.93447 -2.99214 3372 ft 215 kts 13°
2026-05-07 16:09 55.94887 -2.98529 3146 ft 215 kts 13°
2026-05-07 16:09 55.96347 -2.98092 2969 ft 208 kts 350°
2026-05-07 16:09 55.97737 -2.98703 3005 ft 204 kts 337°
2026-05-07 16:09 55.99100 -2.99461 3006 ft 205 kts 338°
2026-05-07 16:10 56.00443 -3.00265 2994 ft 204 kts 329°
2026-05-07 16:10 56.01621 -3.01609 3000 ft 200 kts 317°
2026-05-07 16:10 56.02741 -3.03089 3001 ft 198 kts 313°
2026-05-07 16:10 56.03405 -3.05074 2999 ft 182 kts 272°
2026-05-07 16:11 56.03446 -3.07323 3003 ft 180 kts 263°
2026-05-07 16:11 56.03443 -3.09554 2859 ft 183 kts 264°
2026-05-07 16:11 56.03371 -3.11819 2688 ft 181 kts 255°
2026-05-07 16:11 56.02960 -3.13865 2617 ft 174 kts 236°
2026-05-07 16:12 56.02294 -3.15675 2574 ft 175 kts 234°
2026-05-07 16:12 56.01655 -3.17546 2487 ft 177 kts 237°
2026-05-07 16:12 56.01033 -3.19423 2255 ft 173 kts 235°
2026-05-07 16:12 56.00456 -3.21101 2015 ft 148 kts 236°
2026-05-07 16:13 55.99937 -3.22664 1836 ft 140 kts 233°
2026-05-07 16:13 55.99469 -3.24015 1647 ft 126 kts 234°
2026-05-07 16:13 55.99037 -3.25364 1465 ft 126 kts 235°
2026-05-07 16:13 55.98594 -3.26691 1325 ft 122 kts 234°
2026-05-07 16:14 55.98149 -3.27967 1167 ft 119 kts 233°
2026-05-07 16:14 55.97722 -3.29232 996 ft 117 kts 237°
2026-05-07 16:14 55.97313 -3.30483 837 ft 121 kts 233°
2026-05-07 16:14 55.96851 -3.31804 728 ft 129 kts 235°
2026-05-07 16:15 55.96394 -3.33167 516 ft 128 kts 235°
2026-05-07 16:15 55.95933 -3.34497 319 ft 123 kts 239°
2026-05-07 16:15 55.95498 -3.35774 165 ft 120 kts 237°
2026-05-07 16:15 55.95095 -3.36957 118 ft 94 kts 239°
2026-05-07 16:16 55.94857 -3.37666 117 ft 44 kts 239°
2026-05-07 16:16 55.94750 -3.37977 119 ft 21 kts 238°
2026-05-07 16:16 55.94679 -3.38040 118 ft 11 kts 156°
2026-05-07 16:16 55.94611 -3.37970 119 ft 12 kts 149°
2026-05-07 16:17 55.94596 -3.37874 117 ft 9 kts 64°
2026-05-07 16:17 55.94631 -3.37766 118 ft 11 kts 58°
2026-05-07 16:17 55.94675 -3.37638 118 ft 13 kts 59°
2026-05-07 16:17 55.94727 -3.37483 119 ft 16 kts 59°
2026-05-07 16:18 55.94787 -3.37304 119 ft 18 kts 58°
2026-05-07 16:18 55.94856 -3.37103 119 ft 20 kts 59°
2026-05-07 16:18 55.94930 -3.36877 117 ft 22 kts 60°
2026-05-07 16:18 55.95014 -3.36637 118 ft 24 kts 59°
2026-05-07 16:19 55.95102 -3.36379 117 ft 25 kts 59°
2026-05-07 16:19 55.95194 -3.36102 119 ft 25 kts 59°
2026-05-07 16:19 55.95260 -3.35909 119 ft 10 kts 59°
2026-05-07 16:19 55.95258 -3.35835 119 ft 6 kts 139°
2026-05-07 16:20 55.95216 -3.35765 116 ft 9 kts 120°
2026-05-07 16:20 55.95182 -3.35652 118 ft 11 kts 118°
2026-05-07 16:20 55.95148 -3.35543 119 ft 5 kts 118°
2026-05-07 16:20 55.95144 -3.35528 119 ft 0 kts 118°
2026-05-07 16:21 55.95143 -3.35514 119 ft 1 kts 72°
2026-05-07 16:21 55.95162 -3.35489 116 ft 4 kts 29°
2026-05-07 16:21 55.95177 -3.35475 120 ft 1 kts 29°
2026-05-07 16:21 55.95180 -3.35472 120 ft 0 kts 29°
2026-05-07 16:22 55.95184 -3.35468 120 ft 0 kts 29°